Regional Weather Roundup
Issued by NWS Sterling, VA

Home | Current Version | Previous Version | Graphics & Text | Print | Product List | Glossary On
Versions: 1 2 3 4 5 6 7 8 9 10 11 12 13 14 15 16 17 18 19 20 21 22 23 24 25 26 27 28
000
ASUS41 KLWX 241210
RWRLWX

REGIONAL WEATHER ROUNDUP
NATIONAL WEATHER SERVICE BALTIMORE MD/WASHINGTON DC
800 AM EDT THU APR 24 2014

Note: "FAIR" indicates few or no clouds below 12,000 feet
with no significant weather and/or obstructions to visibility.
 TC=TEMPERATURE CELSIUS

 * =Non NWS site. Station does not report precipitation (e.g. rain,
    snow, etc.), thunder, or fog.

DCZ001-MDZ009-015-VAZ040>042-051-053>054-241300-
WASHINGTON METRO

CITY           SKY/WX    TMP DP  RH WIND       PRES   REMARKS
WASHINGTON NAT SUNNY     48  24  39 NW16G22   30.12R
DULLES         MOSUNNY   44  21  40 NW9       30.12R
ANDREWS AFB    SUNNY     46  22  39 NW17      30.10R
FT BELVOIR     SUNNY     47  21  35 N9        30.12R
QUANTICO       MOSUNNY   48  22  35 N10G18    30.13R
COLLEGE PARK*  SUNNY     46  25  42 NW8       30.11R
LEESBURG*      SUNNY     45  27  49 N12G20    30.13R
MANASSAS*      SUNNY     46  25  42 N9        30.13R
GAITHERSBURG*  SUNNY     43  23  45 NW6       30.14R

$$

MDZ006>007-011-014-241300-
BALTIMORE METRO

CITY           SKY/WX    TMP DP  RH WIND       PRES   REMARKS
BWI AIRPORT    MOSUNNY   45  25  45 W10       30.09R
MD SCIENCE CTR   N/A     47  24  40 MISG      30.11R
MARTIN STATE   SUNNY     46  27  46 W10       30.11R
ANNAPOLIS      SUNNY     47  29  49 NW12      30.09R
FORT MEADE*    SUNNY     45  27  49 NW7       30.12R

$$

MDZ012-015-019>023-241300-
MARYLAND EASTERN SHORE

CITY           SKY/WX    TMP DP  RH WIND       PRES   REMARKS
OCEAN CITY     SUNNY     47  31  53 NW10      30.05R
SALISBURY      SUNNY     50  29  44 NW9       30.06R
BAY BRIDGE AP* SUNNY     46  28  49 NW15      30.09R
CAMBRIDGE*     SUNNY     50  28  43 NW9G21    30.08R
EASTON*        SUNNY     48  30  49 NW13G23   30.11R

$$

MDZ017>025-241300-
SOUTHERN MARYLAND

CITY           SKY/WX    TMP DP  RH WIND       PRES   REMARKS
PATUXENT RIVER SUNNY     48  25  40 NW17      30.08R
ST INIGOES     SUNNY     48  26  42 NW9       30.09R
LEONARDTOWN*   SUNNY     46  25  42 NW7       30.10R

$$

MDZ003>005-241300-
NORTH CENTRAL MARYLAND

CITY           SKY/WX    TMP DP  RH WIND       PRES   REMARKS
FREDERICK*     SUNNY     45  28  53 NW6       30.15R
HAGERSTOWN APT SUNNY     40  22  48 W12       30.12R
WESTMINSTER*   SUNNY     41  21  45 NW9G16    30.09R

$$

MDZ501>502-241300-
WESTERN MARYLAND

CITY           SKY/WX    TMP DP  RH WIND       PRES   REMARKS
OAKLAND*       MOSUNNY   30  10  43 W3        30.09R
CUMBERLAND*    SUNNY     39  21  48 NE3       30.19R

$$

VAZ025>031-241300-
SHENANDOAH VALLEY

CITY           SKY/WX    TMP DP  RH WIND       PRES   REMARKS
WINCHESTER*    SUNNY     43  21  42 NW9       30.13R
STAUNTON*      PTSUNNY   38  31  77 CALM      30.14R

$$

WVZ021-048>050-054>055-241300-
EASTERN WEST VIRGINIA PANHANDLE

CITY           SKY/WX    TMP DP  RH WIND       PRES   REMARKS
MARTINSBURG    SUNNY     44  18  35 NW10      30.14R
PETERSBURG*    MOSUNNY   40  36  84 CALM      30.16R

$$

VAZ036>039-050-241300-
CENTRAL FOOTHILLS

CITY           SKY/WX    TMP DP  RH WIND       PRES   REMARKS
CHARLOTTESVILL MOSUNNY   46  27  47 S3        30.12R
CULPEPER*      MOSUNNY   48  21  34 N6        30.14R

$$

VAZ055>057-241300-
NORTH AND CENTRAL PIEDMONT

CITY           SKY/WX    TMP DP  RH WIND       PRES   REMARKS
FREDERICKSBRG* SUNNY     48  25  40 NW8       30.12R
STAFFORD*      SUNNY     47  28  48 NW8       30.16R

$$

NCZ024-NYZ072-PAZ021-071-VAZ022-071-241300-
OTHER REGIONAL OBSERVATIONS

CITY           SKY/WX    TMP DP  RH WIND       PRES   REMARKS
NEW YORK CITY  SUNNY     44  16  32 NW8G25    29.93R
PHILADELPHIA   SUNNY     46  15  28 NW17G23   30.04R
PITTSBURGH     PTSUNNY   36  19  50 N3        30.16R
ROANOKE        PTSUNNY   45  34  65 CALM      30.13R
RICHMOND       MOSUNNY   48  29  47 N9        30.12R
RALEIGH        MOSUNNY   48  39  71 CALM      30.12R

$$

ANZ530>537-241300-
MARINE OBSERVATIONS

STATION/POSITION TIME  TEMP    WIND        PRES
                       AIR SEA DIR/SP/G
                 (UTC) (F)     (DEG/KT/KT) (MB)
THOMAS PT LIGHT  1200   45 53  310/ 15/ 16 1019.5R
BALT KEY BRIDGE  1200   45     290/ 14/ 17 1019.3R
COVE POINT       1200   46     340/ 23/ 26 1018.6R
LEWISETTA        1200   49 56  330/ 12/ 17 1018.9R
SOLOMONS ISLAND  1200      54                N/A
PINEY POINT      1200          340/ 14/ 15   N/A

$$




USA.gov is the U.S. government's official web portal to all federal, state and local government web resources and services.